Miscellaneous Local Product
Issued by NWS Hastings, NE

Home | Current Version | Previous Version | Graphics & Text | Print | Product List | Glossary On
Versions: 1 2 3 4 5 6 7 8 9 10 11 12 13 14 15 16 17 18 19 20 21 22 23 24 25 26 27 28 29 30 31 32 33 34 35 36 37 38 39 40 41 42 43 44 45 46 47 48 49 50
421
AXUS43 KGID 180002
MISGRI

GID CWA HOURLY WEATHER ROUNDUP
NATIONAL WEATHER SERVICE HASTINGS NE
600 PM CST FRI NOV 17 2017

NOTE: "FAIR" INDICATES FEW OR NO CLOUDS BELOW 12,000 FEET WITH NO
SIGNIFICANT WEATHER AND/OR OBSTRUCTIONS TO VISIBILITY.

...SOUTH CENTRAL NEBRASKA...

CITY           SKY/WX    TMP DP  RH WIND       PRES   REMARKS
GRAND ISLAND   PTCLDY    47  36  65 N9        29.59R
KEARNEY        PTCLDY    47  34  60 N13       29.60R
HASTINGS       CLOUDY    47  34  60 N9        29.58R
ORD            CLOUDY    47  32  56 N12       29.59R
YORK           CLOUDY    46  37  71 N8        29.57R
AURORA         CLOUDY    46  34  63 N9        29.58R
LEXINGTON      PTCLDY    47  33  57 N13       29.59R
HOLDREGE       CLOUDY    48  35  61 NE14      29.56S
HEBRON         PTCLDY    57  48  71 N9        29.51R

...NEBRASKA PANHANDLE...

CITY           SKY/WX    TMP DP  RH WIND       PRES   REMARKS
CHADRON        CLOUDY    41  37  86 W6        29.66R
ALLIANCE       CLOUDY    38  38 100 S3        29.65R
SCOTTSBLUFF    CLOUDY    45  37  73 CALM      29.66R
SIDNEY         LGT RAIN  43  38  82 N12       29.67R

...WESTERN AND NORTH CENTRAL NEBRASKA...

CITY           SKY/WX    TMP DP  RH WIND       PRES   REMARKS
VALENTINE      CLOUDY    43  33  68 N7        29.67R
AINSWORTH      CLOUDY    41  38  87 N3        29.67R
ONEILL         RAIN      42  40  93 N8        29.64R
BROKEN BOW     PTCLDY    48  30  49 N13       29.59R
NORTH PLATTE   PTCLDY    47  32  56 N14       29.62R
MCCOOK         CLOUDY    52  33  48 N12       29.57R

...EASTERN NEBRASKA...

CITY           SKY/WX    TMP DP  RH WIND       PRES   REMARKS
NORFOLK        PTCLDY    46  36  68 N17G26    29.57R
SO SIOUX CITY  PTCLDY    47  39  74 N12       29.59R
TEKAMAH        CLOUDY    50  39  66 NW12      29.56R
COLUMBUS       CLOUDY    48  36  63 N13       29.59R
ALBION         CLOUDY    47  35  63 N13       29.59R
OMAHA EPPLEY   CLOUDY    57  51  80 N8        29.53R
OFFUTT AFB     CLOUDY    57  53  86 N6        29.52R
MILLARD        CLOUDY    58  48  67 N3        29.53R
LINCOLN        CLOUDY    54  43  66 N9        29.54R
NEBRASKA CITY  CLOUDY    60  57  89 NE7       29.49F
BEATRICE       CLEAR     59  51  75 N13       29.50R
FALLS CITY     CLEAR     58  54  86 E6        29.47S

...NORTHERN KANSAS...

CITY           SKY/WX    TMP DP  RH WIND       PRES   REMARKS
GOODLAND       PTCLDY    51  32  48 N13       29.56R
HILL CITY      CLEAR     56  39  53 NE13      29.51S
NORTON         CLEAR     54  30  40 N14       29.51F
PHILLIPSBURG   CLEAR     55  36  47 N10       29.53R
SMITH CENTER   CLEAR     54  37  54 N8        29.53R
HAYS           CLEAR     60  40  47 NE12      29.48S
RUSSELL        CLEAR     62  42  47 N9        29.47R
CONCORDIA      CLEAR     60  45  57 NW6       29.48R
SALINA         CLOUDY    63  48  58 S9        29.45F
TOPEKA         CLEAR     68  58  70 S5        29.46S



USA.gov is the U.S. government's official web portal to all federal, state and local government web resources and services.